Year,Month,Day,Hour,Minute,Value (Times are PST for temperature in C)
2012,05,06,00,00,5.20
2012,05,06,00,01,5.20
2012,05,06,00,02,5.20
2012,05,06,00,03,5.20
2012,05,06,00,04,5.20
2012,05,06,00,05,5.20
2012,05,06,00,06,5.10
2012,05,06,00,07,5.10
2012,05,06,00,08,5.00
2012,05,06,00,09,5.00
2012,05,06,00,10,5.00
2012,05,06,00,11,5.00
2012,05,06,00,12,5.00
2012,05,06,00,13,5.00
2012,05,06,00,14,5.00
2012,05,06,00,15,5.00
2012,05,06,00,16,5.00
2012,05,06,00,17,5.10
2012,05,06,00,18,5.10
2012,05,06,00,19,5.10
2012,05,06,00,20,5.10
2012,05,06,00,21,5.00
2012,05,06,00,22,5.00
2012,05,06,00,23,5.00
2012,05,06,00,24,4.90
2012,05,06,00,25,4.90
2012,05,06,00,26,4.80
2012,05,06,00,27,4.80
2012,05,06,00,28,4.70
2012,05,06,00,29,4.70
2012,05,06,00,30,4.70
2012,05,06,00,31,4.70
2012,05,06,00,32,4.60
2012,05,06,00,33,4.60
2012,05,06,00,34,4.60
2012,05,06,00,35,4.60
2012,05,06,00,36,4.70
2012,05,06,00,37,4.70
2012,05,06,00,38,4.70
2012,05,06,00,39,4.70
2012,05,06,00,40,4.70
2012,05,06,00,41,4.70
2012,05,06,00,42,4.80
2012,05,06,00,43,4.70
2012,05,06,00,44,4.70
2012,05,06,00,45,4.70
2012,05,06,00,46,4.70
2012,05,06,00,47,4.70
2012,05,06,00,48,4.60
2012,05,06,00,49,4.60
2012,05,06,00,50,4.60
2012,05,06,00,51,4.60
2012,05,06,00,52,4.60
2012,05,06,00,53,4.60
2012,05,06,00,54,4.60
2012,05,06,00,55,4.60
2012,05,06,00,56,4.60
2012,05,06,00,57,4.60
2012,05,06,00,58,4.60
2012,05,06,00,59,4.60
2012,05,06,01,00,4.60
2012,05,06,01,01,4.70
2012,05,06,01,02,4.70
2012,05,06,01,03,4.70
2012,05,06,01,04,4.70
2012,05,06,01,05,4.80
2012,05,06,01,06,4.80
2012,05,06,01,07,4.80
2012,05,06,01,08,4.70
2012,05,06,01,09,4.70
2012,05,06,01,10,4.70
2012,05,06,01,11,4.70
2012,05,06,01,12,4.60
2012,05,06,01,13,4.60
2012,05,06,01,14,4.50
2012,05,06,01,15,4.50
2012,05,06,01,16,4.40
2012,05,06,01,17,4.30
2012,05,06,01,18,4.30
2012,05,06,01,19,4.30
2012,05,06,01,20,4.30
2012,05,06,01,21,4.30
2012,05,06,01,22,4.20
2012,05,06,01,23,4.20
2012,05,06,01,24,4.20
2012,05,06,01,25,4.20
2012,05,06,01,26,4.20
2012,05,06,01,27,4.20
2012,05,06,01,28,4.20
2012,05,06,01,29,4.20
2012,05,06,01,30,4.20
2012,05,06,01,31,4.20
2012,05,06,01,32,4.20
2012,05,06,01,33,4.10
2012,05,06,01,34,4.10
2012,05,06,01,35,4.10
2012,05,06,01,36,4.10
2012,05,06,01,37,4.00
2012,05,06,01,38,4.00
2012,05,06,01,39,4.00
2012,05,06,01,40,4.00
2012,05,06,01,41,4.00
2012,05,06,01,42,3.90
2012,05,06,01,43,3.90
2012,05,06,01,44,3.90
2012,05,06,01,45,3.90
2012,05,06,01,46,3.90
2012,05,06,01,47,3.90
2012,05,06,01,48,4.00
2012,05,06,01,49,3.90
2012,05,06,01,50,3.90
2012,05,06,01,51,3.90
2012,05,06,01,52,3.90
2012,05,06,01,53,3.90
2012,05,06,01,54,3.90
2012,05,06,01,55,3.90
2012,05,06,01,56,3.90
2012,05,06,01,57,3.90
2012,05,06,01,58,3.90
2012,05,06,01,59,3.90
2012,05,06,02,00,3.90
2012,05,06,02,01,3.90
2012,05,06,02,02,3.90
2012,05,06,02,03,3.90
2012,05,06,02,04,3.90
2012,05,06,02,05,3.90
2012,05,06,02,06,3.90
2012,05,06,02,07,3.90
2012,05,06,02,08,3.90
2012,05,06,02,09,3.90
2012,05,06,02,10,3.90
2012,05,06,02,11,3.90
2012,05,06,02,12,3.80
2012,05,06,02,13,3.80
2012,05,06,02,14,3.80
2012,05,06,02,15,3.80
2012,05,06,02,16,3.80
2012,05,06,02,17,3.80
2012,05,06,02,18,3.70
2012,05,06,02,19,3.70
2012,05,06,02,20,3.70
2012,05,06,02,21,3.60
2012,05,06,02,22,3.60
2012,05,06,02,23,3.60
2012,05,06,02,24,3.60
2012,05,06,02,25,3.60
2012,05,06,02,26,3.60
2012,05,06,02,27,3.60
2012,05,06,02,28,3.60
2012,05,06,02,29,3.70
2012,05,06,02,30,3.70
2012,05,06,02,31,3.60
2012,05,06,02,32,3.60
2012,05,06,02,33,3.60
2012,05,06,02,34,3.60
2012,05,06,02,35,3.50
2012,05,06,02,36,3.50
2012,05,06,02,37,3.50
2012,05,06,02,38,3.60
2012,05,06,02,39,3.60
2012,05,06,02,40,3.60
2012,05,06,02,41,3.60
2012,05,06,02,42,3.50
2012,05,06,02,43,3.50
2012,05,06,02,44,3.50
2012,05,06,02,45,3.50
2012,05,06,02,46,3.50
2012,05,06,02,47,3.50
2012,05,06,02,48,3.50
2012,05,06,02,49,3.50
2012,05,06,02,50,3.50
2012,05,06,02,51,3.50
2012,05,06,02,52,3.50
2012,05,06,02,53,3.50
2012,05,06,02,54,3.50
2012,05,06,02,55,3.40
2012,05,06,02,56,3.40
2012,05,06,02,57,3.30
2012,05,06,02,58,3.30
2012,05,06,02,59,3.30
2012,05,06,03,00,3.30
2012,05,06,03,01,3.30
2012,05,06,03,02,3.30
2012,05,06,03,03,3.20
2012,05,06,03,04,3.30
2012,05,06,03,05,3.30
2012,05,06,03,06,3.40
2012,05,06,03,07,3.40
2012,05,06,03,08,3.50
2012,05,06,03,09,3.50
2012,05,06,03,10,3.60
2012,05,06,03,11,3.70
2012,05,06,03,12,3.80
2012,05,06,03,13,3.80
2012,05,06,03,14,3.80
2012,05,06,03,15,3.90
2012,05,06,03,16,3.90
2012,05,06,03,17,3.80
2012,05,06,03,18,3.80
2012,05,06,03,19,3.70
2012,05,06,03,20,3.70
2012,05,06,03,21,3.70
2012,05,06,03,22,3.70
2012,05,06,03,23,3.80
2012,05,06,03,24,3.80
2012,05,06,03,25,3.80
2012,05,06,03,26,3.90
2012,05,06,03,27,3.90
2012,05,06,03,28,4.00
2012,05,06,03,29,4.00
2012,05,06,03,30,4.00
2012,05,06,03,31,3.90
2012,05,06,03,32,3.90
2012,05,06,03,33,3.90
2012,05,06,03,34,3.80
2012,05,06,03,35,3.80
2012,05,06,03,36,3.80
2012,05,06,03,37,3.70
2012,05,06,03,38,3.70
2012,05,06,03,39,3.70
2012,05,06,03,40,3.60
2012,05,06,03,41,3.60
2012,05,06,03,42,3.60
2012,05,06,03,43,3.60
2012,05,06,03,44,3.50
2012,05,06,03,45,3.50
2012,05,06,03,46,3.50
2012,05,06,03,47,3.60
2012,05,06,03,48,3.70
2012,05,06,03,49,3.70
2012,05,06,03,50,3.80
2012,05,06,03,51,3.90
2012,05,06,03,52,4.00
2012,05,06,03,53,4.10
2012,05,06,03,54,4.10
2012,05,06,03,55,4.20
2012,05,06,03,56,4.20
2012,05,06,03,57,4.30
2012,05,06,03,58,4.30
2012,05,06,03,59,4.30
2012,05,06,04,00,4.30
2012,05,06,04,01,4.40
2012,05,06,04,02,4.40
2012,05,06,04,03,4.40
2012,05,06,04,04,4.40
2012,05,06,04,05,4.40
2012,05,06,04,06,4.50
2012,05,06,04,07,4.50
2012,05,06,04,08,4.50
2012,05,06,04,09,4.50
2012,05,06,04,10,4.40
2012,05,06,04,11,4.50
2012,05,06,04,12,4.50
2012,05,06,04,13,4.50
2012,05,06,04,14,4.50
2012,05,06,04,15,4.60
2012,05,06,04,16,4.60
2012,05,06,04,17,4.60
2012,05,06,04,18,4.60
2012,05,06,04,19,4.60
2012,05,06,04,20,4.60
2012,05,06,04,21,4.60
2012,05,06,04,22,4.60
2012,05,06,04,23,4.50
2012,05,06,04,24,4.50
2012,05,06,04,25,4.50
2012,05,06,04,26,4.50
2012,05,06,04,27,4.40
2012,05,06,04,28,4.40
2012,05,06,04,29,4.40
2012,05,06,04,30,4.40
2012,05,06,04,31,4.40
2012,05,06,04,32,4.40
2012,05,06,04,33,4.40
2012,05,06,04,34,4.40
2012,05,06,04,35,4.50
2012,05,06,04,36,4.50
2012,05,06,04,37,4.40
2012,05,06,04,38,4.40
2012,05,06,04,39,4.40
2012,05,06,04,40,4.40
2012,05,06,04,41,4.40
2012,05,06,04,42,4.40
2012,05,06,04,43,4.40
2012,05,06,04,44,4.40
2012,05,06,04,45,4.50
2012,05,06,04,46,4.50
2012,05,06,04,47,4.50
2012,05,06,04,48,4.50
2012,05,06,04,49,4.40
2012,05,06,04,50,4.40
2012,05,06,04,51,4.40
2012,05,06,04,52,4.40
2012,05,06,04,53,4.40
2012,05,06,04,54,4.40
2012,05,06,04,55,4.40
2012,05,06,04,56,4.40
2012,05,06,04,57,4.40
2012,05,06,04,58,4.40
2012,05,06,04,59,4.40
2012,05,06,05,00,4.30
2012,05,06,05,01,4.30
2012,05,06,05,02,4.20
2012,05,06,05,03,4.20
2012,05,06,05,04,4.20
2012,05,06,05,05,4.20
2012,05,06,05,06,4.30
2012,05,06,05,07,4.30
2012,05,06,05,08,4.40
2012,05,06,05,09,4.40
2012,05,06,05,10,4.40
2012,05,06,05,11,4.40
2012,05,06,05,12,4.40
2012,05,06,05,13,4.40
2012,05,06,05,14,4.40
2012,05,06,05,15,4.30
2012,05,06,05,16,4.40
2012,05,06,05,17,4.30
2012,05,06,05,18,4.30
2012,05,06,05,19,4.30
2012,05,06,05,20,4.30
2012,05,06,05,21,4.40
2012,05,06,05,22,4.40
2012,05,06,05,23,4.40
2012,05,06,05,24,4.30
2012,05,06,05,25,4.30
2012,05,06,05,26,4.30
2012,05,06,05,27,4.30
2012,05,06,05,28,4.30
2012,05,06,05,29,4.30
2012,05,06,05,30,4.30
2012,05,06,05,31,4.30
2012,05,06,05,32,4.30
2012,05,06,05,33,4.20
2012,05,06,05,34,4.20
2012,05,06,05,35,4.20
2012,05,06,05,36,4.10
2012,05,06,05,37,4.10
2012,05,06,05,38,4.10
2012,05,06,05,39,4.10
2012,05,06,05,40,4.00
2012,05,06,05,41,3.90
2012,05,06,05,42,3.90
2012,05,06,05,43,3.90
2012,05,06,05,44,3.90
2012,05,06,05,45,3.90
2012,05,06,05,46,3.90
2012,05,06,05,47,3.90
2012,05,06,05,48,3.90
2012,05,06,05,49,3.90
2012,05,06,05,50,3.90
2012,05,06,05,51,3.90
2012,05,06,05,52,4.00
2012,05,06,05,53,4.00
2012,05,06,05,54,4.10
2012,05,06,05,55,4.10
2012,05,06,05,56,4.10
2012,05,06,05,57,4.10
2012,05,06,05,58,4.10
2012,05,06,05,59,4.10
2012,05,06,06,00,4.10
2012,05,06,06,01,4.10
2012,05,06,06,02,4.10
2012,05,06,06,03,4.10
2012,05,06,06,04,4.10
2012,05,06,06,05,4.00
2012,05,06,06,06,3.90
2012,05,06,06,07,3.90
2012,05,06,06,08,3.80
2012,05,06,06,09,3.80
2012,05,06,06,10,3.90
2012,05,06,06,11,3.90
2012,05,06,06,12,4.00
2012,05,06,06,13,4.00
2012,05,06,06,14,4.10
2012,05,06,06,15,4.10
2012,05,06,06,16,4.20
2012,05,06,06,17,4.20
2012,05,06,06,18,4.20
2012,05,06,06,19,4.20
2012,05,06,06,20,4.20
2012,05,06,06,21,4.20
2012,05,06,06,22,4.20
2012,05,06,06,23,4.20
2012,05,06,06,24,4.10
2012,05,06,06,25,4.10
2012,05,06,06,26,4.10
2012,05,06,06,27,4.00
2012,05,06,06,28,4.00
2012,05,06,06,29,4.00
2012,05,06,06,30,3.90
2012,05,06,06,31,3.90
2012,05,06,06,32,3.90
2012,05,06,06,33,3.90
2012,05,06,06,34,3.90
2012,05,06,06,35,4.00
2012,05,06,06,36,4.00
2012,05,06,06,37,4.00
2012,05,06,06,38,4.10
2012,05,06,06,39,4.10
2012,05,06,06,40,4.10
2012,05,06,06,41,4.10
2012,05,06,06,42,4.20
2012,05,06,06,43,4.20
2012,05,06,06,44,4.20
2012,05,06,06,45,4.30
2012,05,06,06,46,4.30
2012,05,06,06,47,4.40
2012,05,06,06,48,4.40
2012,05,06,06,49,4.50
2012,05,06,06,50,4.60
2012,05,06,06,51,4.60
2012,05,06,06,52,4.70
2012,05,06,06,53,4.70
2012,05,06,06,54,4.70
2012,05,06,06,55,4.80
2012,05,06,06,56,4.80
2012,05,06,06,57,4.80
2012,05,06,06,58,4.90
2012,05,06,06,59,4.90
2012,05,06,07,00,5.00
2012,05,06,07,01,5.00
2012,05,06,07,02,5.00
2012,05,06,07,03,5.10
2012,05,06,07,04,5.10
2012,05,06,07,05,5.10
2012,05,06,07,06,5.10
2012,05,06,07,07,5.10
2012,05,06,07,08,5.20
2012,05,06,07,09,5.20
2012,05,06,07,10,5.20
2012,05,06,07,11,5.20
2012,05,06,07,12,5.20
2012,05,06,07,13,5.20
2012,05,06,07,14,5.20
2012,05,06,07,15,5.20
2012,05,06,07,16,5.20
2012,05,06,07,17,5.20
2012,05,06,07,18,5.30
2012,05,06,07,19,5.30
2012,05,06,07,20,5.30
2012,05,06,07,21,5.30
2012,05,06,07,22,5.30
2012,05,06,07,23,5.30
2012,05,06,07,24,5.30
2012,05,06,07,25,5.30
2012,05,06,07,26,5.30
2012,05,06,07,27,5.40
2012,05,06,07,28,5.40
2012,05,06,07,29,5.40
2012,05,06,07,30,5.40
2012,05,06,07,31,5.40
2012,05,06,07,32,5.40
2012,05,06,07,33,5.50
2012,05,06,07,34,5.50
2012,05,06,07,35,5.50
2012,05,06,07,36,5.50
2012,05,06,07,37,5.50
2012,05,06,07,38,5.50
2012,05,06,07,39,5.60
2012,05,06,07,40,5.60
2012,05,06,07,41,5.60
2012,05,06,07,42,5.60
2012,05,06,07,43,5.60
2012,05,06,07,44,5.60
2012,05,06,07,45,5.70
2012,05,06,07,46,5.70
2012,05,06,07,47,5.70
2012,05,06,07,48,5.70
2012,05,06,07,49,5.70
2012,05,06,07,50,5.70
2012,05,06,07,51,5.70
2012,05,06,07,52,5.70
2012,05,06,07,53,5.70
2012,05,06,07,54,5.70
2012,05,06,07,55,5.70
2012,05,06,07,56,5.70
2012,05,06,07,57,5.80
2012,05,06,07,58,5.80
2012,05,06,07,59,5.80
2012,05,06,08,00,5.80
2012,05,06,08,01,5.90
2012,05,06,08,02,5.90
2012,05,06,08,03,5.90
2012,05,06,08,04,6.00
2012,05,06,08,05,6.00
2012,05,06,08,06,6.00
2012,05,06,08,07,6.10
2012,05,06,08,08,6.10
2012,05,06,08,09,6.20
2012,05,06,08,10,6.20
2012,05,06,08,11,6.30
2012,05,06,08,12,6.30
2012,05,06,08,13,6.30
2012,05,06,08,14,6.30
2012,05,06,08,15,6.40
2012,05,06,08,16,6.40
2012,05,06,08,17,6.40
2012,05,06,08,18,6.50
2012,05,06,08,19,6.50
2012,05,06,08,20,6.60
2012,05,06,08,21,6.60
2012,05,06,08,22,6.60
2012,05,06,08,23,6.70
2012,05,06,08,24,6.70
2012,05,06,08,25,6.80
2012,05,06,08,26,6.80
2012,05,06,08,27,6.80
2012,05,06,08,28,6.90
2012,05,06,08,29,7.00
2012,05,06,08,30,7.00
2012,05,06,08,31,7.10
2012,05,06,08,32,7.10
2012,05,06,08,33,7.20
2012,05,06,08,34,7.20
2012,05,06,08,35,7.20
2012,05,06,08,36,7.20
2012,05,06,08,37,7.20
2012,05,06,08,38,7.20
2012,05,06,08,39,7.30
2012,05,06,08,40,7.30
2012,05,06,08,41,7.40
2012,05,06,08,42,7.50
2012,05,06,08,43,7.60
2012,05,06,08,44,7.60
2012,05,06,08,45,7.70
2012,05,06,08,46,7.70
2012,05,06,08,47,7.70
2012,05,06,08,48,7.80
2012,05,06,08,49,7.80
2012,05,06,08,50,7.80
2012,05,06,08,51,7.80
2012,05,06,08,52,7.90
2012,05,06,08,53,7.90
2012,05,06,08,54,7.90
2012,05,06,08,55,7.90
2012,05,06,08,56,7.90
2012,05,06,08,57,8.00
2012,05,06,08,58,8.00
2012,05,06,08,59,8.00
2012,05,06,09,00,8.00
2012,05,06,09,01,8.00
2012,05,06,09,02,8.00
2012,05,06,09,03,8.10
2012,05,06,09,04,8.10
2012,05,06,09,05,8.10
2012,05,06,09,06,8.10
2012,05,06,09,07,8.10
2012,05,06,09,08,8.10
2012,05,06,09,09,8.10
2012,05,06,09,10,8.10
2012,05,06,09,11,8.20
2012,05,06,09,12,8.20
2012,05,06,09,13,8.20
2012,05,06,09,14,8.30
2012,05,06,09,15,8.30
2012,05,06,09,16,8.40
2012,05,06,09,17,8.40
2012,05,06,09,18,8.40
2012,05,06,09,19,8.50
2012,05,06,09,20,8.60
2012,05,06,09,21,8.60
2012,05,06,09,22,8.70
2012,05,06,09,23,8.80
2012,05,06,09,24,8.90
2012,05,06,09,25,9.00
2012,05,06,09,26,9.00
2012,05,06,09,27,9.00
2012,05,06,09,28,9.10
2012,05,06,09,29,9.10
2012,05,06,09,30,9.10
2012,05,06,09,31,9.10
2012,05,06,09,32,9.10
2012,05,06,09,33,9.10
2012,05,06,09,34,9.10
2012,05,06,09,35,9.10
2012,05,06,09,36,9.10
2012,05,06,09,37,9.10
2012,05,06,09,38,9.10
2012,05,06,09,39,9.20
2012,05,06,09,40,9.20
2012,05,06,09,41,9.30
2012,05,06,09,42,9.40
2012,05,06,09,43,9.40
2012,05,06,09,44,9.40
2012,05,06,09,45,9.50
2012,05,06,09,46,9.50
2012,05,06,09,47,9.60
2012,05,06,09,48,9.60
2012,05,06,09,49,9.50
2012,05,06,09,50,9.50
2012,05,06,09,51,9.50
2012,05,06,09,52,9.40
2012,05,06,09,53,9.40
2012,05,06,09,54,9.30
2012,05,06,09,55,9.30
2012,05,06,09,56,9.30
2012,05,06,09,57,9.40
2012,05,06,09,58,9.40
2012,05,06,09,59,9.50
2012,05,06,10,00,9.50
2012,05,06,10,01,9.60
2012,05,06,10,02,9.60
2012,05,06,10,03,9.70
2012,05,06,10,04,9.90
2012,05,06,10,05,10.10
2012,05,06,10,06,10.20
2012,05,06,10,07,10.20
2012,05,06,10,08,10.30
2012,05,06,10,09,10.30
2012,05,06,10,10,10.40
2012,05,06,10,11,10.40
2012,05,06,10,12,10.30
2012,05,06,10,13,10.30
2012,05,06,10,14,10.30
2012,05,06,10,15,10.40
2012,05,06,10,16,10.30
2012,05,06,10,17,10.30
2012,05,06,10,18,10.30
2012,05,06,10,19,10.40
2012,05,06,10,20,10.40
2012,05,06,10,21,10.40
2012,05,06,10,22,10.40
2012,05,06,10,23,10.40
2012,05,06,10,24,10.40
2012,05,06,10,25,10.50
2012,05,06,10,26,10.50
2012,05,06,10,27,10.50
2012,05,06,10,28,10.50
2012,05,06,10,29,10.60
2012,05,06,10,30,10.60
2012,05,06,10,31,10.60
2012,05,06,10,32,10.60
2012,05,06,10,33,10.70
2012,05,06,10,34,10.70
2012,05,06,10,35,10.80
2012,05,06,10,36,10.80
2012,05,06,10,37,10.80
2012,05,06,10,38,10.90
2012,05,06,10,39,11.10
2012,05,06,10,40,11.30
2012,05,06,10,41,11.40
2012,05,06,10,42,11.60
2012,05,06,10,43,11.70
2012,05,06,10,44,11.90
2012,05,06,10,45,11.90
2012,05,06,10,46,11.80
2012,05,06,10,47,11.80
2012,05,06,10,48,11.90
2012,05,06,10,49,12.00
2012,05,06,10,50,12.20
2012,05,06,10,51,12.30
2012,05,06,10,52,12.30
2012,05,06,10,53,12.50
2012,05,06,10,54,12.60
2012,05,06,10,55,12.60
2012,05,06,10,56,12.70
2012,05,06,10,57,12.80
2012,05,06,10,58,12.90
2012,05,06,10,59,13.00
2012,05,06,11,00,13.10
2012,05,06,11,01,13.10
2012,05,06,11,02,13.10
2012,05,06,11,03,13.10
2012,05,06,11,04,13.00
2012,05,06,11,05,13.00
2012,05,06,11,06,12.90
2012,05,06,11,07,12.90
2012,05,06,11,08,12.90
2012,05,06,11,09,12.90
2012,05,06,11,10,12.90
2012,05,06,11,11,12.90
2012,05,06,11,12,12.90
2012,05,06,11,13,12.80
2012,05,06,11,14,12.80
2012,05,06,11,15,12.90
2012,05,06,11,16,12.90
2012,05,06,11,17,13.00
2012,05,06,11,18,13.00
2012,05,06,11,19,13.10
2012,05,06,11,20,13.10
2012,05,06,11,21,13.10
2012,05,06,11,22,13.00
2012,05,06,11,23,13.00
2012,05,06,11,24,13.00
2012,05,06,11,25,13.10
2012,05,06,11,26,13.10
2012,05,06,11,27,13.20
2012,05,06,11,28,13.30
2012,05,06,11,29,13.40
2012,05,06,11,30,13.50
2012,05,06,11,31,13.50
2012,05,06,11,32,13.40
2012,05,06,11,33,13.40
2012,05,06,11,34,13.30
2012,05,06,11,35,13.20
2012,05,06,11,36,13.20
2012,05,06,11,37,13.20
2012,05,06,11,38,13.20
2012,05,06,11,39,13.10
2012,05,06,11,40,13.00
2012,05,06,11,41,12.90
2012,05,06,11,42,12.70
2012,05,06,11,43,12.70
2012,05,06,11,44,12.60
2012,05,06,11,45,12.70
2012,05,06,11,46,12.70
2012,05,06,11,47,12.70
2012,05,06,11,48,12.80
2012,05,06,11,49,12.80
2012,05,06,11,50,12.80
2012,05,06,11,51,12.80
2012,05,06,11,52,12.80
2012,05,06,11,53,12.90
2012,05,06,11,54,13.00
2012,05,06,11,55,13.20
2012,05,06,11,56,13.40
2012,05,06,11,57,13.60
2012,05,06,11,58,13.80
2012,05,06,11,59,13.80
2012,05,06,12,00,13.80
2012,05,06,12,01,13.80
2012,05,06,12,02,13.70
2012,05,06,12,03,13.70
2012,05,06,12,04,13.70
2012,05,06,12,05,13.70
2012,05,06,12,06,13.60
2012,05,06,12,07,13.60
2012,05,06,12,08,13.60
2012,05,06,12,09,13.50
2012,05,06,12,10,13.60
2012,05,06,12,11,13.50
2012,05,06,12,12,13.40
2012,05,06,12,13,13.50
2012,05,06,12,14,13.60
2012,05,06,12,15,13.60
2012,05,06,12,16,13.60
2012,05,06,12,17,13.60
2012,05,06,12,18,13.50
2012,05,06,12,19,13.50
2012,05,06,12,20,13.40
2012,05,06,12,21,13.40
2012,05,06,12,22,13.50
2012,05,06,12,23,13.50
2012,05,06,12,24,13.50
2012,05,06,12,25,13.50
2012,05,06,12,26,13.40
2012,05,06,12,27,13.40
2012,05,06,12,28,13.50
2012,05,06,12,29,13.60
2012,05,06,12,30,13.70
2012,05,06,12,31,13.80
2012,05,06,12,32,13.80
2012,05,06,12,33,13.70
2012,05,06,12,34,13.80
2012,05,06,12,35,13.80
2012,05,06,12,36,13.80
2012,05,06,12,37,13.80
2012,05,06,12,38,13.80
2012,05,06,12,39,13.80
2012,05,06,12,40,13.90
2012,05,06,12,41,13.90
2012,05,06,12,42,13.80
2012,05,06,12,43,13.70
2012,05,06,12,44,13.60
2012,05,06,12,45,13.60
2012,05,06,12,46,13.60
2012,05,06,12,47,13.60
2012,05,06,12,48,13.60
2012,05,06,12,49,13.50
2012,05,06,12,50,13.50
2012,05,06,12,51,13.70
2012,05,06,12,52,13.80
2012,05,06,12,53,13.80
2012,05,06,12,54,13.80
2012,05,06,12,55,13.80
2012,05,06,12,56,13.80
2012,05,06,12,57,13.80
2012,05,06,12,58,13.80
2012,05,06,12,59,13.80
2012,05,06,13,00,13.70
2012,05,06,13,01,13.60
2012,05,06,13,02,13.60
2012,05,06,13,03,13.50
2012,05,06,13,04,13.60
2012,05,06,13,05,13.60
2012,05,06,13,06,13.60
2012,05,06,13,07,13.60
2012,05,06,13,08,13.50
2012,05,06,13,09,13.50
2012,05,06,13,10,13.40
2012,05,06,13,11,13.30
2012,05,06,13,12,13.40
2012,05,06,13,13,13.40
2012,05,06,13,14,13.50
2012,05,06,13,15,13.60
2012,05,06,13,16,13.60
2012,05,06,13,17,13.70
2012,05,06,13,18,13.80
2012,05,06,13,19,13.90
2012,05,06,13,20,14.10
2012,05,06,13,21,14.20
2012,05,06,13,22,14.20
2012,05,06,13,23,14.20
2012,05,06,13,24,14.20
2012,05,06,13,25,14.40
2012,05,06,13,26,14.40
2012,05,06,13,27,14.30
2012,05,06,13,28,14.20
2012,05,06,13,29,14.20
2012,05,06,13,30,14.10
2012,05,06,13,31,14.10
2012,05,06,13,32,14.10
2012,05,06,13,33,14.20
2012,05,06,13,34,14.20
2012,05,06,13,35,14.10
2012,05,06,13,36,14.20
2012,05,06,13,37,14.20
2012,05,06,13,38,14.20
2012,05,06,13,39,14.30
2012,05,06,13,40,14.40
2012,05,06,13,41,14.40
2012,05,06,13,42,14.40
2012,05,06,13,43,14.30
2012,05,06,13,44,14.40
2012,05,06,13,45,14.40
2012,05,06,13,46,14.40
2012,05,06,13,47,14.30
2012,05,06,13,48,14.30
2012,05,06,13,49,14.40
2012,05,06,13,50,14.40
2012,05,06,13,51,14.20
2012,05,06,13,52,14.00
2012,05,06,13,53,14.00
2012,05,06,13,54,14.00
2012,05,06,13,55,14.00
2012,05,06,13,56,14.10
2012,05,06,13,57,14.30
2012,05,06,13,58,14.40
2012,05,06,13,59,14.60
2012,05,06,14,00,14.70
2012,05,06,14,01,14.60
2012,05,06,14,02,14.60
2012,05,06,14,03,14.70
2012,05,06,14,04,14.70
2012,05,06,14,05,14.70
2012,05,06,14,06,14.70
2012,05,06,14,07,14.70
2012,05,06,14,08,14.70
2012,05,06,14,09,14.60
2012,05,06,14,10,14.60
2012,05,06,14,11,14.50
2012,05,06,14,12,14.40
2012,05,06,14,13,14.50
2012,05,06,14,14,14.60
2012,05,06,14,15,14.70
2012,05,06,14,16,14.70
2012,05,06,14,17,14.70
2012,05,06,14,18,14.60
2012,05,06,14,19,14.60
2012,05,06,14,20,14.60
2012,05,06,14,21,14.70
2012,05,06,14,22,14.60
2012,05,06,14,23,14.50
2012,05,06,14,24,14.60
2012,05,06,14,25,14.60
2012,05,06,14,26,14.60
2012,05,06,14,27,14.60
2012,05,06,14,28,14.60
2012,05,06,14,29,14.50
2012,05,06,14,30,14.40
2012,05,06,14,31,14.60
2012,05,06,14,32,14.70
2012,05,06,14,33,14.80
2012,05,06,14,34,14.80
2012,05,06,14,35,14.80
2012,05,06,14,36,14.80
2012,05,06,14,37,14.90
2012,05,06,14,38,15.00
2012,05,06,14,39,14.80
2012,05,06,14,40,14.80
2012,05,06,14,41,14.80
2012,05,06,14,42,14.80
2012,05,06,14,43,14.90
2012,05,06,14,44,15.00
2012,05,06,14,45,15.00
2012,05,06,14,46,15.20
2012,05,06,14,47,15.10
2012,05,06,14,48,15.00
2012,05,06,14,49,15.00
2012,05,06,14,50,15.00
2012,05,06,14,51,14.90
2012,05,06,14,52,14.80
2012,05,06,14,53,14.80
2012,05,06,14,54,14.90
2012,05,06,14,55,15.00
2012,05,06,14,56,14.90
2012,05,06,14,57,14.80
2012,05,06,14,58,14.70
2012,05,06,14,59,14.70
2012,05,06,15,00,14.70
2012,05,06,15,01,14.70
2012,05,06,15,02,14.70
2012,05,06,15,03,14.60
2012,05,06,15,04,14.40
2012,05,06,15,05,14.40
2012,05,06,15,06,14.40
2012,05,06,15,07,14.40
2012,05,06,15,08,14.50
2012,05,06,15,09,14.60
2012,05,06,15,10,14.60
2012,05,06,15,11,14.50
2012,05,06,15,12,14.40
2012,05,06,15,13,14.30
2012,05,06,15,14,14.30
2012,05,06,15,15,14.30
2012,05,06,15,16,14.40
2012,05,06,15,17,14.40
2012,05,06,15,18,14.50
2012,05,06,15,19,14.60
2012,05,06,15,20,14.60
2012,05,06,15,21,14.60
2012,05,06,15,22,14.70
2012,05,06,15,23,14.80
2012,05,06,15,24,14.80
2012,05,06,15,25,14.80
2012,05,06,15,26,14.70
2012,05,06,15,27,14.70
2012,05,06,15,28,14.70
2012,05,06,15,29,14.70
2012,05,06,15,30,14.70
2012,05,06,15,31,14.70
2012,05,06,15,32,14.70
2012,05,06,15,33,14.80
2012,05,06,15,34,14.80
2012,05,06,15,35,15.00
2012,05,06,15,36,15.00
2012,05,06,15,37,15.00
2012,05,06,15,38,15.00
2012,05,06,15,39,15.00
2012,05,06,15,40,15.00
2012,05,06,15,41,15.00
2012,05,06,15,42,15.00
2012,05,06,15,43,15.00
2012,05,06,15,44,14.90
2012,05,06,15,45,14.90
2012,05,06,15,46,14.80
2012,05,06,15,47,14.80
2012,05,06,15,48,14.80
2012,05,06,15,49,14.70
2012,05,06,15,50,14.60
2012,05,06,15,51,14.60
2012,05,06,15,52,14.70
2012,05,06,15,53,14.80
2012,05,06,15,54,14.90
2012,05,06,15,55,15.00
2012,05,06,15,56,15.00
2012,05,06,15,57,15.00
2012,05,06,15,58,14.90
2012,05,06,15,59,14.80
2012,05,06,16,00,14.70
2012,05,06,16,01,14.70
2012,05,06,16,02,14.70
2012,05,06,16,03,14.70
2012,05,06,16,04,14.70
2012,05,06,16,05,14.60
2012,05,06,16,06,14.60
2012,05,06,16,07,14.60
2012,05,06,16,08,14.60
2012,05,06,16,09,14.60
2012,05,06,16,10,14.70
2012,05,06,16,11,14.70
2012,05,06,16,12,14.80
2012,05,06,16,13,14.80
2012,05,06,16,14,14.90
2012,05,06,16,15,14.90
2012,05,06,16,16,14.80
2012,05,06,16,17,14.80
2012,05,06,16,18,15.00
2012,05,06,16,19,15.00
2012,05,06,16,20,15.00
2012,05,06,16,21,15.00
2012,05,06,16,22,15.00
2012,05,06,16,23,15.00
2012,05,06,16,24,15.00
2012,05,06,16,25,15.00
2012,05,06,16,26,15.00
2012,05,06,16,27,15.00
2012,05,06,16,28,15.00
2012,05,06,16,29,14.90
2012,05,06,16,30,14.80
2012,05,06,16,31,14.70
2012,05,06,16,32,14.70
2012,05,06,16,33,14.80
2012,05,06,16,34,14.90
2012,05,06,16,35,14.90
2012,05,06,16,36,14.90
2012,05,06,16,37,14.80
2012,05,06,16,38,14.80
2012,05,06,16,39,14.80
2012,05,06,16,40,14.80
2012,05,06,16,41,14.90
2012,05,06,16,42,15.00
2012,05,06,16,43,15.00
2012,05,06,16,44,15.00
2012,05,06,16,45,15.00
2012,05,06,16,46,15.00
2012,05,06,16,47,15.00
2012,05,06,16,48,15.00
2012,05,06,16,49,15.00
2012,05,06,16,50,15.00
2012,05,06,16,51,15.00
2012,05,06,16,52,14.90
2012,05,06,16,53,14.80
2012,05,06,16,54,14.80
2012,05,06,16,55,14.70
2012,05,06,16,56,14.70
2012,05,06,16,57,14.70
2012,05,06,16,58,14.70
2012,05,06,16,59,14.80
2012,05,06,17,00,14.80
2012,05,06,17,01,14.90
2012,05,06,17,02,14.90
2012,05,06,17,03,14.90
2012,05,06,17,04,15.00
2012,05,06,17,05,15.00
2012,05,06,17,06,15.00
2012,05,06,17,07,15.00
2012,05,06,17,08,15.00
2012,05,06,17,09,15.00
2012,05,06,17,10,15.00
2012,05,06,17,11,15.00
2012,05,06,17,12,15.00
2012,05,06,17,13,15.00
2012,05,06,17,14,15.00
2012,05,06,17,15,15.00
2012,05,06,17,16,14.80
2012,05,06,17,17,14.80
2012,05,06,17,18,14.80
2012,05,06,17,19,14.70
2012,05,06,17,20,14.70
2012,05,06,17,21,14.60
2012,05,06,17,22,14.60
2012,05,06,17,23,14.60
2012,05,06,17,24,14.60
2012,05,06,17,25,14.70
2012,05,06,17,26,14.80
2012,05,06,17,27,14.90
2012,05,06,17,28,15.00
2012,05,06,17,29,15.00
2012,05,06,17,30,15.00
2012,05,06,17,31,14.90
2012,05,06,17,32,14.80
2012,05,06,17,33,14.80
2012,05,06,17,34,14.80
2012,05,06,17,35,14.80
2012,05,06,17,36,14.80
2012,05,06,17,37,14.90
2012,05,06,17,38,14.90
2012,05,06,17,39,15.00
2012,05,06,17,40,15.00
2012,05,06,17,41,15.00
2012,05,06,17,42,15.00
2012,05,06,17,43,15.00
2012,05,06,17,44,15.00
2012,05,06,17,45,15.00